Time,TemperatureF,DewpointF,PressureIn,WindDirection,WindDirectionDegrees,WindSpeedMPH,WindSpeedGustMPH,Humidity,HourlyPrecipIn,Conditions,Clouds,dailyrainin,SolarRadiationWatts/m^2,SoftwareType,DateUTC
2013-04-20 00:01:00,36.4,29.9,30.13,SSW,213,0.0,0.0,77,0.00,,,0.00,32767.00,ALWS 1.0-beta,2013-04-20 06:01:00,
2013-04-20 00:06:00,36.3,29.8,30.13,SSW,213,0.0,0.0,77,0.00,,,0.00,32767.00,ALWS 1.0-beta,2013-04-20 06:06:00,
2013-04-20 00:11:00,36.3,30.1,30.13,SSW,213,0.0,0.0,78,0.00,,,0.00,32767.00,ALWS 1.0-beta,2013-04-20 06:11:00,
2013-04-20 00:16:00,36.3,30.1,30.13,SSW,213,0.0,0.0,78,0.00,,,0.00,32767.00,ALWS 1.0-beta,2013-04-20 06:16:00,
2013-04-20 00:21:00,36.4,30.2,30.13,SSW,213,0.0,5.0,78,0.00,,,0.00,32767.00,ALWS 1.0-beta,2013-04-20 06:21:00,
2013-04-20 00:26:00,36.4,30.5,30.13,SSW,213,0.0,4.0,79,0.00,,,0.00,32767.00,ALWS 1.0-beta,2013-04-20 06:26:00,
2013-04-20 00:31:00,36.5,30.6,30.13,SSW,213,5.0,5.0,79,0.00,,,0.00,32767.00,ALWS 1.0-beta,2013-04-20 06:31:00,
2013-04-20 00:36:00,36.5,30.6,30.12,SSW,213,0.0,5.0,79,0.00,,,0.00,32767.00,ALWS 1.0-beta,2013-04-20 06:36:00,
2013-04-20 00:41:00,36.4,30.8,30.12,SSW,213,6.0,8.0,80,0.00,,,0.00,32767.00,ALWS 1.0-beta,2013-04-20 06:41:00,
2013-04-20 00:46:00,36.2,30.6,30.12,SSW,213,4.0,6.0,80,0.00,,,0.00,32767.00,ALWS 1.0-beta,2013-04-20 06:46:00,
2013-04-20 00:51:00,36.0,30.8,30.12,SSW,213,4.0,5.0,81,0.00,,,0.00,32767.00,ALWS 1.0-beta,2013-04-20 06:51:00,
2013-04-20 00:56:00,35.9,30.6,30.12,SSW,213,2.0,5.0,81,0.00,,,0.00,32767.00,ALWS 1.0-beta,2013-04-20 06:56:00,
2013-04-20 01:01:00,35.8,30.9,30.12,SSW,213,0.0,5.0,82,0.00,,,0.00,32767.00,ALWS 1.0-beta,2013-04-20 07:01:00,
2013-04-20 01:06:00,35.8,30.9,30.12,SSW,213,0.0,3.0,82,0.00,,,0.00,32767.00,ALWS 1.0-beta,2013-04-20 07:06:00,
2013-04-20 01:11:00,35.8,31.1,30.12,SSW,213,0.0,2.0,83,0.00,,,0.00,32767.00,ALWS 1.0-beta,2013-04-20 07:11:00,
2013-04-20 01:16:00,35.8,31.1,30.12,SSW,213,0.0,3.0,83,0.00,,,0.00,32767.00,ALWS 1.0-beta,2013-04-20 07:16:00,
2013-04-20 01:21:00,35.8,31.1,30.12,SSW,213,2.0,4.0,83,0.00,,,0.00,32767.00,ALWS 1.0-beta,2013-04-20 07:21:00,
2013-04-20 01:26:00,35.6,31.0,30.12,SSW,213,0.0,4.0,83,0.00,,,0.00,32767.00,ALWS 1.0-beta,2013-04-20 07:26:00,
2013-04-20 01:31:00,35.4,30.8,30.12,SSW,213,0.0,3.0,83,0.00,,,0.01,32767.00,ALWS 1.0-beta,2013-04-20 07:31:00,
2013-04-20 01:36:00,35.4,30.8,30.11,SSW,213,0.0,0.0,83,0.00,,,0.01,32767.00,ALWS 1.0-beta,2013-04-20 07:36:00,
2013-04-20 01:41:00,35.4,30.8,30.11,SSW,213,0.0,0.0,83,0.00,,,0.01,32767.00,ALWS 1.0-beta,2013-04-20 07:41:00,
2013-04-20 01:46:00,35.4,30.8,30.11,SSW,213,0.0,0.0,83,0.00,,,0.01,32767.00,ALWS 1.0-beta,2013-04-20 07:46:00,
2013-04-20 01:51:00,35.4,31.1,30.10,SSW,211,0.0,0.0,84,0.00,,,0.01,32767.00,ALWS 1.0-beta,2013-04-20 07:51:00,
2013-04-20 01:56:00,35.3,31.0,30.10,SSW,213,0.0,0.0,84,0.00,,,0.01,32767.00,ALWS 1.0-beta,2013-04-20 07:56:00,
2013-04-20 02:01:00,35.3,31.0,30.10,SSW,212,0.0,1.0,84,0.00,,,0.01,32767.00,ALWS 1.0-beta,2013-04-20 08:01:00,
2013-04-20 02:06:00,35.3,31.0,30.10,SSW,213,2.0,3.0,84,0.00,,,0.01,32767.00,ALWS 1.0-beta,2013-04-20 08:06:00,
2013-04-20 02:11:00,35.4,31.1,30.10,SSW,213,1.0,2.0,84,0.00,,,0.01,32767.00,ALWS 1.0-beta,2013-04-20 08:11:00,
2013-04-20 02:16:00,35.5,31.1,30.10,SSW,213,0.0,0.0,84,0.00,,,0.01,32767.00,ALWS 1.0-beta,2013-04-20 08:16:00,
2013-04-20 02:21:00,35.5,31.1,30.10,SSW,212,0.0,0.0,84,0.00,,,0.01,32767.00,ALWS 1.0-beta,2013-04-20 08:21:00,
2013-04-20 02:26:00,35.5,31.1,30.09,SSW,213,0.0,0.0,84,0.00,,,0.01,32767.00,ALWS 1.0-beta,2013-04-20 08:26:00,
2013-04-20 02:31:00,35.5,31.1,30.10,SSW,213,0.0,0.0,84,0.00,,,0.01,32767.00,ALWS 1.0-beta,2013-04-20 08:31:00,
2013-04-20 02:36:00,35.6,31.2,30.10,SSW,213,2.0,2.0,84,0.00,,,0.01,32767.00,ALWS 1.0-beta,2013-04-20 08:36:00,
2013-04-20 02:41:00,35.7,31.4,30.10,SSW,213,1.0,2.0,84,0.00,,,0.01,32767.00,ALWS 1.0-beta,2013-04-20 08:41:00,
2013-04-20 02:46:00,35.7,31.4,30.10,SSW,213,0.0,0.0,84,0.00,,,0.01,32767.00,ALWS 1.0-beta,2013-04-20 08:46:00,
2013-04-20 02:51:00,35.6,31.2,30.10,SSW,213,0.0,0.0,84,0.00,,,0.02,32767.00,ALWS 1.0-beta,2013-04-20 08:51:00,
2013-04-20 02:56:00,35.5,31.1,30.10,SSW,213,0.0,0.0,84,0.00,,,0.02,32767.00,ALWS 1.0-beta,2013-04-20 08:56:00,
2013-04-20 03:01:00,35.4,31.1,30.10,SSW,211,0.0,0.0,84,0.00,,,0.02,32767.00,ALWS 1.0-beta,2013-04-20 09:01:00,
2013-04-20 03:06:00,35.3,31.0,30.09,SSW,213,0.0,0.0,84,0.00,,,0.02,32767.00,ALWS 1.0-beta,2013-04-20 09:06:00,
2013-04-20 03:11:00,35.0,30.7,30.09,SSW,212,0.0,0.0,84,0.00,,,0.02,32767.00,ALWS 1.0-beta,2013-04-20 09:11:00,
2013-04-20 03:16:00,34.9,30.6,30.09,SSW,213,0.0,0.0,84,0.00,,,0.02,32767.00,ALWS 1.0-beta,2013-04-20 09:16:00,
2013-04-20 03:21:00,34.7,30.7,30.09,SW,214,0.0,0.0,85,0.00,,,0.02,32767.00,ALWS 1.0-beta,2013-04-20 09:21:00,
2013-04-20 03:26:00,34.7,30.4,30.09,North,360,0.0,0.0,84,0.00,,,0.02,32767.00,ALWS 1.0-beta,2013-04-20 09:26:00,
2013-04-20 03:31:00,34.5,30.5,30.09,SSW,213,0.0,0.0,85,0.00,,,0.02,32767.00,ALWS 1.0-beta,2013-04-20 09:31:00,
2013-04-20 03:36:00,34.4,30.4,30.09,North,360,0.0,0.0,85,0.00,,,0.03,32767.00,ALWS 1.0-beta,2013-04-20 09:36:00,
2013-04-20 03:41:00,34.4,30.4,30.09,SSW,213,0.0,0.0,85,0.00,,,0.03,32767.00,ALWS 1.0-beta,2013-04-20 09:41:00,
2013-04-20 03:46:00,34.4,30.4,30.08,SSW,212,0.0,0.0,85,0.00,,,0.03,32767.00,ALWS 1.0-beta,2013-04-20 09:46:00,
2013-04-20 03:51:00,34.4,30.4,30.08,SW,214,0.0,0.0,85,0.00,,,0.03,32767.00,ALWS 1.0-beta,2013-04-20 09:51:00,
2013-04-20 03:56:00,34.4,30.4,30.08,SSW,211,0.0,0.0,85,0.00,,,0.03,32767.00,ALWS 1.0-beta,2013-04-20 09:56:00,
2013-04-20 04:01:00,34.4,30.4,30.08,SW,214,0.0,0.0,85,0.00,,,0.03,32767.00,ALWS 1.0-beta,2013-04-20 10:01:00,
2013-04-20 04:06:00,34.4,30.4,30.08,SSW,211,0.0,0.0,85,0.00,,,0.03,32767.00,ALWS 1.0-beta,2013-04-20 10:06:00,
2013-04-20 04:11:00,34.4,30.4,30.08,North,360,0.0,0.0,85,0.00,,,0.03,32767.00,ALWS 1.0-beta,2013-04-20 10:11:00,
2013-04-20 04:16:00,34.4,30.6,30.08,SSW,213,0.0,0.0,86,0.00,,,0.03,32767.00,ALWS 1.0-beta,2013-04-20 10:16:00,
2013-04-20 04:21:00,34.4,30.6,30.08,SSW,211,0.0,0.0,86,0.00,,,0.04,32767.00,ALWS 1.0-beta,2013-04-20 10:21:00,
2013-04-20 04:26:00,34.4,30.6,30.08,SSW,213,0.0,0.0,86,0.00,,,0.04,32767.00,ALWS 1.0-beta,2013-04-20 10:26:00,
2013-04-20 04:31:00,34.4,30.6,30.08,SSW,213,0.0,2.0,86,0.00,,,0.04,32767.00,ALWS 1.0-beta,2013-04-20 10:31:00,
2013-04-20 04:36:00,34.4,30.6,30.08,SSW,211,0.0,3.0,86,0.00,,,0.05,32767.00,ALWS 1.0-beta,2013-04-20 10:36:00,
2013-04-20 04:41:00,34.4,30.6,30.08,SW,214,0.0,0.0,86,0.00,,,0.05,32767.00,ALWS 1.0-beta,2013-04-20 10:41:00,
2013-04-20 04:46:00,34.2,30.5,30.08,North,360,0.0,3.0,86,0.00,,,0.05,32767.00,ALWS 1.0-beta,2013-04-20 10:46:00,
2013-04-20 04:51:00,34.0,30.3,30.09,North,360,1.0,2.0,86,0.00,,,0.05,32767.00,ALWS 1.0-beta,2013-04-20 10:51:00,
2013-04-20 04:56:00,33.9,30.2,30.09,SW,216,0.0,2.0,86,0.00,,,0.05,32767.00,ALWS 1.0-beta,2013-04-20 10:56:00,
2013-04-20 05:01:00,34.0,30.3,30.09,SSW,211,0.0,0.0,86,0.00,,,0.05,32767.00,ALWS 1.0-beta,2013-04-20 11:01:00,
2013-04-20 05:06:00,34.0,30.3,30.09,SSW,213,0.0,0.0,86,0.00,,,0.05,32767.00,ALWS 1.0-beta,2013-04-20 11:06:00,
2013-04-20 05:11:00,34.1,30.4,30.09,SSW,213,0.0,1.0,86,0.00,,,0.05,32767.00,ALWS 1.0-beta,2013-04-20 11:11:00,
2013-04-20 05:16:00,34.2,30.5,30.09,SSW,212,0.0,0.0,86,0.00,,,0.05,32767.00,ALWS 1.0-beta,2013-04-20 11:16:00,
2013-04-20 05:21:00,34.2,30.7,30.09,SSW,213,0.0,0.0,87,0.00,,,0.05,32767.00,ALWS 1.0-beta,2013-04-20 11:21:00,
2013-04-20 05:26:00,34.0,30.5,30.09,SSW,211,0.0,0.0,87,0.00,,,0.05,32767.00,ALWS 1.0-beta,2013-04-20 11:26:00,
2013-04-20 05:31:00,33.9,30.2,30.10,SW,215,0.0,0.0,86,0.00,,,0.05,32767.00,ALWS 1.0-beta,2013-04-20 11:31:00,
2013-04-20 05:36:00,33.7,30.0,30.10,SSW,213,0.0,0.0,86,0.00,,,0.05,32767.00,ALWS 1.0-beta,2013-04-20 11:36:00,
2013-04-20 05:41:00,33.6,30.1,30.10,SSW,210,0.0,0.0,87,0.00,,,0.05,32767.00,ALWS 1.0-beta,2013-04-20 11:41:00,
2013-04-20 05:46:00,33.5,30.0,30.10,North,360,0.0,0.0,87,0.00,,,0.05,32767.00,ALWS 1.0-beta,2013-04-20 11:46:00,
2013-04-20 05:51:00,33.5,30.0,30.10,SSW,209,0.0,0.0,87,0.00,,,0.05,32767.00,ALWS 1.0-beta,2013-04-20 11:51:00,
2013-04-20 05:56:00,33.5,30.0,30.10,North,360,0.0,0.0,87,0.00,,,0.05,32767.00,ALWS 1.0-beta,2013-04-20 11:56:00,
2013-04-20 06:01:00,33.7,30.2,30.10,North,360,0.0,2.0,87,0.00,,,0.05,32767.00,ALWS 1.0-beta,2013-04-20 12:01:00,
2013-04-20 06:06:00,33.9,30.5,30.10,SSW,213,0.0,1.0,87,0.00,,,0.05,32767.00,ALWS 1.0-beta,2013-04-20 12:06:00,
2013-04-20 06:11:00,33.7,30.2,30.10,North,360,0.0,3.0,87,0.00,,,0.05,32767.00,ALWS 1.0-beta,2013-04-20 12:11:00,
2013-04-20 06:16:00,33.6,30.1,30.10,SW,215,0.0,1.0,87,0.00,,,0.05,32767.00,ALWS 1.0-beta,2013-04-20 12:16:00,
2013-04-20 06:21:00,33.5,30.0,30.10,SW,216,0.0,0.0,87,0.00,,,0.06,32767.00,ALWS 1.0-beta,2013-04-20 12:21:00,
2013-04-20 06:26:00,33.5,30.0,30.10,SSW,213,0.0,1.0,87,0.00,,,0.06,32767.00,ALWS 1.0-beta,2013-04-20 12:26:00,
2013-04-20 06:31:00,33.5,30.0,30.11,SW,216,0.0,2.0,87,0.00,,,0.06,32767.00,ALWS 1.0-beta,2013-04-20 12:31:00,
2013-04-20 06:36:00,33.5,30.0,30.10,North,360,0.0,0.0,87,0.00,,,0.06,32767.00,ALWS 1.0-beta,2013-04-20 12:36:00,
2013-04-20 06:41:00,33.5,30.0,30.10,SSW,212,0.0,0.0,87,0.00,,,0.06,32767.00,ALWS 1.0-beta,2013-04-20 12:41:00,
2013-04-20 06:46:00,33.6,30.1,30.10,North,360,0.0,0.0,87,0.00,,,0.06,32767.00,ALWS 1.0-beta,2013-04-20 12:46:00,
2013-04-20 06:51:00,33.6,30.1,30.11,SSW,209,0.0,0.0,87,0.00,,,0.06,32767.00,ALWS 1.0-beta,2013-04-20 12:51:00,
2013-04-20 06:56:00,33.7,30.2,30.11,SW,216,0.0,0.0,87,0.00,,,0.06,32767.00,ALWS 1.0-beta,2013-04-20 12:56:00,
2013-04-20 07:01:00,33.7,30.2,30.11,SW,215,0.0,0.0,87,0.00,,,0.06,32767.00,ALWS 1.0-beta,2013-04-20 13:01:00,
2013-04-20 07:06:00,33.7,30.2,30.11,North,360,0.0,0.0,87,0.00,,,0.06,32767.00,ALWS 1.0-beta,2013-04-20 13:06:00,
2013-04-20 07:11:00,33.6,30.1,30.11,SW,216,0.0,0.0,87,0.00,,,0.06,32767.00,ALWS 1.0-beta,2013-04-20 13:11:00,
2013-04-20 07:16:00,33.6,30.1,30.11,SSW,211,0.0,2.0,87,0.00,,,0.06,32767.00,ALWS 1.0-beta,2013-04-20 13:16:00,
2013-04-20 07:21:00,33.5,30.0,30.11,SSW,213,0.0,0.0,87,0.00,,,0.06,32767.00,ALWS 1.0-beta,2013-04-20 13:21:00,
2013-04-20 07:26:00,33.6,30.1,30.11,SSW,211,0.0,0.0,87,0.00,,,0.06,32767.00,ALWS 1.0-beta,2013-04-20 13:26:00,
2013-04-20 07:31:00,33.7,30.2,30.11,North,360,0.0,1.0,87,0.00,,,0.06,32767.00,ALWS 1.0-beta,2013-04-20 13:31:00,
2013-04-20 07:36:00,33.7,30.2,30.11,SW,215,0.0,0.0,87,0.00,,,0.06,32767.00,ALWS 1.0-beta,2013-04-20 13:36:00,
2013-04-20 07:41:00,33.8,30.4,30.12,North,360,0.0,0.0,87,0.00,,,0.06,32767.00,ALWS 1.0-beta,2013-04-20 13:41:00,
2013-04-20 07:46:00,34.0,30.8,30.12,SSW,213,0.0,0.0,88,0.00,,,0.06,32767.00,ALWS 1.0-beta,2013-04-20 13:46:00,
2013-04-20 07:51:00,34.2,31.0,30.12,North,360,0.0,0.0,88,0.00,,,0.06,32767.00,ALWS 1.0-beta,2013-04-20 13:51:00,
2013-04-20 07:56:00,34.3,31.1,30.12,SSW,209,0.0,0.0,88,0.00,,,0.07,32767.00,ALWS 1.0-beta,2013-04-20 13:56:00,
2013-04-20 08:01:00,34.3,31.1,30.12,SSW,209,0.0,0.0,88,0.00,,,0.07,32767.00,ALWS 1.0-beta,2013-04-20 14:01:00,
2013-04-20 08:06:00,34.4,31.2,30.13,North,360,0.0,0.0,88,0.00,,,0.07,32767.00,ALWS 1.0-beta,2013-04-20 14:06:00,
2013-04-20 08:11:00,34.7,31.5,30.13,SSW,213,0.0,0.0,88,0.00,,,0.07,32767.00,ALWS 1.0-beta,2013-04-20 14:11:00,
2013-04-20 08:16:00,34.9,31.7,30.13,SW,216,0.0,0.0,88,0.04,,,0.08,32767.00,ALWS 1.0-beta,2013-04-20 14:16:00,
2013-04-20 08:21:00,35.0,31.8,30.13,SSW,209,0.0,0.0,88,0.04,,,0.08,32767.00,ALWS 1.0-beta,2013-04-20 14:21:00,
2013-04-20 08:26:00,35.1,31.9,30.14,SW,215,0.0,0.0,88,0.05,,,0.09,32767.00,ALWS 1.0-beta,2013-04-20 14:26:00,
2013-04-20 08:31:00,35.1,31.9,30.14,SSW,209,0.0,0.0,88,0.05,,,0.09,32767.00,ALWS 1.0-beta,2013-04-20 14:31:00,
2013-04-20 08:36:00,35.2,32.0,30.13,SSW,212,0.0,0.0,88,0.05,,,0.09,32767.00,ALWS 1.0-beta,2013-04-20 14:36:00,
2013-04-20 08:41:00,35.2,32.0,30.14,SSW,213,0.0,0.0,88,0.05,,,0.10,32767.00,ALWS 1.0-beta,2013-04-20 14:41:00,
2013-04-20 08:46:00,35.1,31.9,30.14,SSW,213,0.0,1.0,88,0.05,,,0.10,32767.00,ALWS 1.0-beta,2013-04-20 14:46:00,
2013-04-20 08:51:00,35.1,31.9,30.14,North,360,0.0,0.0,88,0.06,,,0.11,32767.00,ALWS 1.0-beta,2013-04-20 14:51:00,
2013-04-20 08:56:00,35.2,32.0,30.14,SW,214,0.0,0.0,88,0.06,,,0.11,32767.00,ALWS 1.0-beta,2013-04-20 14:56:00,
2013-04-20 09:01:00,35.3,32.1,30.14,North,360,0.0,0.0,88,0.05,,,0.12,32767.00,ALWS 1.0-beta,2013-04-20 15:01:00,
2013-04-20 09:06:00,35.3,32.1,30.14,SSW,211,0.0,0.0,88,0.05,,,0.12,32767.00,ALWS 1.0-beta,2013-04-20 15:06:00,
2013-04-20 09:11:00,35.4,32.2,30.14,SSW,211,0.0,0.0,88,0.05,,,0.12,32767.00,ALWS 1.0-beta,2013-04-20 15:11:00,
2013-04-20 09:16:00,35.4,32.2,30.14,SSW,213,0.0,0.0,88,0.05,,,0.13,32767.00,ALWS 1.0-beta,2013-04-20 15:16:00,
2013-04-20 09:21:00,35.6,32.4,30.14,North,360,1.0,1.0,88,0.05,,,0.13,32767.00,ALWS 1.0-beta,2013-04-20 15:21:00,
2013-04-20 09:26:00,35.7,32.5,30.14,SSW,213,0.0,0.0,88,0.06,,,0.14,32767.00,ALWS 1.0-beta,2013-04-20 15:26:00,
2013-04-20 09:31:00,35.7,32.5,30.14,SSW,213,0.0,0.0,88,0.06,,,0.14,32767.00,ALWS 1.0-beta,2013-04-20 15:31:00,
2013-04-20 09:36:00,35.8,32.6,30.14,SW,215,1.0,1.0,88,0.05,,,0.15,32767.00,ALWS 1.0-beta,2013-04-20 15:36:00,
2013-04-20 09:41:00,35.9,32.7,30.14,SW,215,0.0,0.0,88,0.05,,,0.15,32767.00,ALWS 1.0-beta,2013-04-20 15:41:00,
2013-04-20 09:46:00,35.8,32.6,30.14,SSW,211,1.0,3.0,88,0.05,,,0.15,32767.00,ALWS 1.0-beta,2013-04-20 15:46:00,
2013-04-20 09:51:00,35.8,32.6,30.14,North,360,0.0,0.0,88,0.04,,,0.15,32767.00,ALWS 1.0-beta,2013-04-20 15:51:00,
2013-04-20 09:56:00,36.0,32.8,30.14,North,360,0.0,0.0,88,0.00,,,0.16,32767.00,ALWS 1.0-beta,2013-04-20 15:56:00,
2013-04-20 10:01:00,36.5,33.3,30.13,North,360,3.0,3.0,88,0.00,,,0.16,32767.00,ALWS 1.0-beta,2013-04-20 16:01:00,
2013-04-20 10:06:00,36.9,33.7,30.14,North,360,2.0,4.0,88,0.00,,,0.16,32767.00,ALWS 1.0-beta,2013-04-20 16:06:00,
2013-04-20 10:11:00,37.2,34.0,30.14,North,360,0.0,0.0,88,0.00,,,0.16,32767.00,ALWS 1.0-beta,2013-04-20 16:11:00,
2013-04-20 10:16:00,37.7,34.2,30.13,SSW,212,0.0,3.0,87,0.00,,,0.17,32767.00,ALWS 1.0-beta,2013-04-20 16:16:00,
2013-04-20 10:21:00,38.3,34.8,30.14,SSW,212,4.0,4.0,87,0.00,,,0.17,32767.00,ALWS 1.0-beta,2013-04-20 16:21:00,
2013-04-20 10:25:00,38.6,35.1,30.14,WSW,253,4.0,6.0,87,0.00,,,0.17,32767.00,ALWS 1.0-beta,2013-04-20 16:25:00,
2013-04-20 10:30:00,38.3,34.8,30.14,West,276,3.0,5.0,87,0.00,,,0.17,32767.00,ALWS 1.0-beta,2013-04-20 16:30:00,
2013-04-20 10:35:00,38.4,34.6,30.14,North,360,5.0,6.0,86,0.00,,,0.17,32767.00,ALWS 1.0-beta,2013-04-20 16:35:00,
2013-04-20 10:40:00,38.6,34.8,30.14,WNW,290,6.0,13.0,86,0.00,,,0.17,32767.00,ALWS 1.0-beta,2013-04-20 16:40:00,
2013-04-20 10:45:00,38.1,34.0,30.14,WNW,291,10.0,11.0,85,0.00,,,0.17,32767.00,ALWS 1.0-beta,2013-04-20 16:45:00,
2013-04-20 10:50:00,37.8,33.7,30.14,WNW,289,3.0,9.0,85,0.00,,,0.17,32767.00,ALWS 1.0-beta,2013-04-20 16:50:00,
2013-04-20 10:55:00,38.0,33.9,30.15,WNW,288,5.0,8.0,85,0.00,,,0.17,32767.00,ALWS 1.0-beta,2013-04-20 16:55:00,
2013-04-20 11:00:00,38.1,34.0,30.15,WNW,288,9.0,11.0,85,0.00,,,0.17,32767.00,ALWS 1.0-beta,2013-04-20 17:00:00,
2013-04-20 11:05:00,37.9,33.5,30.15,West,277,13.0,16.0,84,0.00,,,0.17,32767.00,ALWS 1.0-beta,2013-04-20 17:05:00,
2013-04-20 11:10:00,37.0,32.6,30.15,WNW,292,12.0,15.0,84,0.00,,,0.17,32767.00,ALWS 1.0-beta,2013-04-20 17:10:00,
2013-04-20 11:15:00,36.6,32.2,30.15,WNW,291,13.0,15.0,84,0.00,,,0.17,32767.00,ALWS 1.0-beta,2013-04-20 17:15:00,
2013-04-20 11:20:00,35.8,31.5,30.15,WNW,300,10.0,12.0,84,0.00,,,0.18,32767.00,ALWS 1.0-beta,2013-04-20 17:20:00,
2013-04-20 11:25:00,36.2,32.1,30.15,NW,314,11.0,11.0,85,0.00,,,0.18,32767.00,ALWS 1.0-beta,2013-04-20 17:25:00,
2013-04-20 11:30:00,36.8,32.7,30.15,WNW,294,12.0,13.0,85,0.06,,,0.19,32767.00,ALWS 1.0-beta,2013-04-20 17:30:00,
2013-04-20 11:35:00,36.9,32.8,30.15,WNW,300,10.0,11.0,85,0.06,,,0.19,32767.00,ALWS 1.0-beta,2013-04-20 17:35:00,
2013-04-20 11:40:00,37.4,33.3,30.15,WNW,284,12.0,13.0,85,0.06,,,0.19,32767.00,ALWS 1.0-beta,2013-04-20 17:40:00,
2013-04-20 11:45:00,38.2,34.1,30.15,NW,308,10.0,14.0,85,0.04,,,0.19,32767.00,ALWS 1.0-beta,2013-04-20 17:45:00,
2013-04-20 11:50:00,38.3,33.9,30.16,North,360,10.0,16.0,84,0.00,,,0.19,32767.00,ALWS 1.0-beta,2013-04-20 17:50:00,
2013-04-20 11:55:00,36.9,31.9,30.16,NNW,329,17.0,19.0,82,0.00,,,0.20,32767.00,ALWS 1.0-beta,2013-04-20 17:55:00,
2013-04-20 12:00:00,36.1,31.5,30.16,NW,326,10.0,19.0,83,0.00,,,0.20,32767.00,ALWS 1.0-beta,2013-04-20 18:00:00,
2013-04-20 12:05:00,35.1,30.5,30.16,North,360,6.0,10.0,83,0.00,,,0.20,32767.00,ALWS 1.0-beta,2013-04-20 18:05:00,
2013-04-20 12:10:00,35.6,31.5,30.16,North,360,10.0,10.0,85,0.00,,,0.21,32767.00,ALWS 1.0-beta,2013-04-20 18:10:00,
2013-04-20 12:15:00,36.6,32.5,30.16,North,360,13.0,14.0,85,0.00,,,0.21,32767.00,ALWS 1.0-beta,2013-04-20 18:15:00,
2013-04-20 12:20:00,36.9,32.8,30.16,WNW,292,12.0,14.0,85,0.00,,,0.21,32767.00,ALWS 1.0-beta,2013-04-20 18:20:00,
2013-04-20 12:25:00,36.9,32.8,30.16,WNW,298,11.0,14.0,85,0.00,,,0.21,32767.00,ALWS 1.0-beta,2013-04-20 18:25:00,
2013-04-20 12:30:00,37.2,33.1,30.16,North,360,9.0,13.0,85,0.00,,,0.21,32767.00,ALWS 1.0-beta,2013-04-20 18:30:00,
2013-04-20 12:35:00,37.8,33.7,30.16,NNW,329,4.0,9.0,85,0.00,,,0.21,32767.00,ALWS 1.0-beta,2013-04-20 18:35:00,
2013-04-20 12:40:00,37.9,33.8,30.16,WNW,299,5.0,9.0,85,0.00,,,0.21,32767.00,ALWS 1.0-beta,2013-04-20 18:40:00,
2013-04-20 12:45:00,38.2,33.8,30.16,WNW,303,7.0,12.0,84,0.00,,,0.21,32767.00,ALWS 1.0-beta,2013-04-20 18:45:00,
2013-04-20 12:50:00,38.2,33.5,30.15,NNW,339,2.0,5.0,83,0.00,,,0.21,32767.00,ALWS 1.0-beta,2013-04-20 18:50:00,
2013-04-20 12:55:00,38.7,34.3,30.15,WNW,290,11.0,12.0,84,0.00,,,0.21,32767.00,ALWS 1.0-beta,2013-04-20 18:55:00,
2013-04-20 13:00:00,39.7,35.0,30.15,NW,311,13.0,15.0,83,0.00,,,0.21,32767.00,ALWS 1.0-beta,2013-04-20 19:00:00,
2013-04-20 13:05:00,39.7,34.4,30.15,North,360,9.0,10.0,81,0.00,,,0.21,32767.00,ALWS 1.0-beta,2013-04-20 19:05:00,
2013-04-20 13:10:00,39.7,34.0,30.15,NW,311,4.0,7.0,80,0.00,,,0.21,32767.00,ALWS 1.0-beta,2013-04-20 19:10:00,
2013-04-20 13:15:00,39.8,33.8,30.15,NW,309,4.0,5.0,79,0.00,,,0.21,32767.00,ALWS 1.0-beta,2013-04-20 19:15:00,
2013-04-20 13:20:00,39.9,33.9,30.15,North,355,6.0,6.0,79,0.00,,,0.21,32767.00,ALWS 1.0-beta,2013-04-20 19:20:00,
2013-04-20 13:25:00,40.2,34.2,30.15,North,360,3.0,10.0,79,0.00,,,0.21,32767.00,ALWS 1.0-beta,2013-04-20 19:25:00,
2013-04-20 13:30:00,41.0,35.0,30.15,WNW,297,17.0,20.0,79,0.00,,,0.21,32767.00,ALWS 1.0-beta,2013-04-20 19:30:00,
2013-04-20 13:35:00,41.3,34.3,30.15,NW,314,14.0,15.0,76,0.00,,,0.21,32767.00,ALWS 1.0-beta,2013-04-20 19:35:00,
2013-04-20 13:40:00,41.2,33.5,30.15,NW,311,15.0,16.0,74,0.00,,,0.21,32767.00,ALWS 1.0-beta,2013-04-20 19:40:00,
2013-04-20 13:45:00,41.3,33.3,30.14,WNW,300,16.0,16.0,73,0.00,,,0.21,32767.00,ALWS 1.0-beta,2013-04-20 19:45:00,
2013-04-20 13:50:00,41.7,34.4,30.14,NW,309,15.0,17.0,75,0.00,,,0.21,32767.00,ALWS 1.0-beta,2013-04-20 19:50:00,
2013-04-20 13:55:00,42.8,35.1,30.14,WNW,288,14.0,21.0,74,0.00,,,0.21,32767.00,ALWS 1.0-beta,2013-04-20 19:55:00,
2013-04-20 14:00:00,42.9,33.1,30.14,NW,304,16.0,19.0,68,0.00,,,0.21,32767.00,ALWS 1.0-beta,2013-04-20 20:00:00,
2013-04-20 14:05:00,42.8,34.1,30.14,NW,306,14.0,21.0,71,0.00,,,0.21,32767.00,ALWS 1.0-beta,2013-04-20 20:05:00,
2013-04-20 14:10:00,43.0,34.2,30.14,WNW,301,14.0,21.0,71,0.00,,,0.21,32767.00,ALWS 1.0-beta,2013-04-20 20:10:00,
2013-04-20 14:15:00,43.3,34.2,30.14,WNW,296,24.0,26.0,70,0.00,,,0.21,32767.00,ALWS 1.0-beta,2013-04-20 20:15:00,
2013-04-20 14:20:00,43.2,35.1,30.15,NW,315,17.0,23.0,73,0.00,,,0.21,32767.00,ALWS 1.0-beta,2013-04-20 20:20:00,
2013-04-20 14:25:00,43.0,35.0,30.15,WNW,290,18.0,25.0,73,0.00,,,0.21,32767.00,ALWS 1.0-beta,2013-04-20 20:25:00,
2013-04-20 14:30:00,43.0,35.0,30.15,NW,306,21.0,24.0,73,0.00,,,0.21,32767.00,ALWS 1.0-beta,2013-04-20 20:30:00,
2013-04-20 14:35:00,41.6,33.3,30.16,NNW,334,12.0,14.0,72,0.00,,,0.21,32767.00,ALWS 1.0-beta,2013-04-20 20:35:00,
2013-04-20 14:40:00,40.4,32.8,30.15,NNW,329,4.0,8.0,74,0.00,,,0.21,32767.00,ALWS 1.0-beta,2013-04-20 20:40:00,
2013-04-20 14:45:00,40.7,33.7,30.16,NNW,332,6.0,7.0,76,0.00,,,0.21,32767.00,ALWS 1.0-beta,2013-04-20 20:45:00,
2013-04-20 14:50:00,40.6,33.3,30.16,North,360,5.0,9.0,75,0.00,,,0.21,32767.00,ALWS 1.0-beta,2013-04-20 20:50:00,
2013-04-20 14:55:00,40.5,33.5,30.16,North,355,3.0,5.0,76,0.00,,,0.21,32767.00,ALWS 1.0-beta,2013-04-20 20:55:00,
2013-04-20 15:00:00,40.6,33.6,30.16,NNW,336,10.0,15.0,76,0.00,,,0.21,32767.00,ALWS 1.0-beta,2013-04-20 21:00:00,
2013-04-20 15:05:00,40.2,33.2,30.16,NNW,344,10.0,10.0,76,0.00,,,0.21,32767.00,ALWS 1.0-beta,2013-04-20 21:05:00,
2013-04-20 15:10:00,40.4,33.8,30.16,NNW,338,5.0,6.0,77,0.00,,,0.21,32767.00,ALWS 1.0-beta,2013-04-20 21:10:00,
2013-04-20 15:15:00,40.9,34.3,30.15,NNE,22,3.0,10.0,77,0.00,,,0.21,32767.00,ALWS 1.0-beta,2013-04-20 21:15:00,
2013-04-20 15:20:00,41.9,34.9,30.16,NW,305,11.0,12.0,76,0.00,,,0.21,32767.00,ALWS 1.0-beta,2013-04-20 21:20:00,
2013-04-20 15:25:00,42.4,33.7,30.15,NW,304,10.0,13.0,71,0.00,,,0.21,32767.00,ALWS 1.0-beta,2013-04-20 21:25:00,
2013-04-20 15:30:00,43.3,33.5,30.15,NW,306,18.0,21.0,68,0.00,,,0.21,32767.00,ALWS 1.0-beta,2013-04-20 21:30:00,
2013-04-20 15:35:00,44.5,35.0,30.15,NW,322,18.0,19.0,69,0.00,,,0.21,32767.00,ALWS 1.0-beta,2013-04-20 21:35:00,
2013-04-20 15:40:00,43.8,32.8,30.14,NW,323,14.0,14.0,65,0.00,,,0.21,32767.00,ALWS 1.0-beta,2013-04-20 21:40:00,
2013-04-20 15:45:00,43.7,33.1,30.14,NW,323,18.0,21.0,66,0.00,,,0.21,32767.00,ALWS 1.0-beta,2013-04-20 21:45:00,
2013-04-20 15:50:00,44.3,33.3,30.15,WNW,290,23.0,24.0,65,0.00,,,0.21,32767.00,ALWS 1.0-beta,2013-04-20 21:50:00,
2013-04-20 15:55:00,43.9,31.7,30.14,NNW,336,17.0,22.0,62,0.00,,,0.21,32767.00,ALWS 1.0-beta,2013-04-20 21:55:00,
2013-04-20 16:00:00,44.2,33.2,30.15,West,268,10.0,16.0,65,0.00,,,0.21,32767.00,ALWS 1.0-beta,2013-04-20 22:00:00,
2013-04-20 16:05:00,44.9,32.3,30.15,WNW,298,14.0,17.0,61,0.00,,,0.21,32767.00,ALWS 1.0-beta,2013-04-20 22:05:00,
2013-04-20 16:10:00,44.9,31.0,30.15,WNW,292,18.0,18.0,58,0.00,,,0.21,32767.00,ALWS 1.0-beta,2013-04-20 22:10:00,
2013-04-20 16:15:00,45.0,31.1,30.15,WNW,282,15.0,21.0,58,0.00,,,0.21,32767.00,ALWS 1.0-beta,2013-04-20 22:15:00,
2013-04-20 16:20:00,44.5,31.5,30.15,WNW,298,21.0,22.0,60,0.00,,,0.21,32767.00,ALWS 1.0-beta,2013-04-20 22:20:00,
2013-04-20 16:25:00,44.7,32.5,30.15,WNW,284,12.0,18.0,62,0.00,,,0.21,32767.00,ALWS 1.0-beta,2013-04-20 22:25:00,
2013-04-20 16:30:00,44.4,31.8,30.15,WNW,302,13.0,19.0,61,0.00,,,0.21,32767.00,ALWS 1.0-beta,2013-04-20 22:30:00,
2013-04-20 16:35:00,44.5,32.3,30.15,WNW,302,15.0,18.0,62,0.00,,,0.21,32767.00,ALWS 1.0-beta,2013-04-20 22:35:00,
2013-04-20 16:40:00,44.5,30.7,30.16,WNW,294,15.0,20.0,58,0.00,,,0.21,32767.00,ALWS 1.0-beta,2013-04-20 22:40:00,
2013-04-20 16:45:00,44.6,32.8,30.15,NW,313,21.0,21.0,63,0.00,,,0.21,32767.00,ALWS 1.0-beta,2013-04-20 22:45:00,
2013-04-20 16:50:00,44.2,31.2,30.15,NW,304,17.0,22.0,60,0.00,,,0.21,32767.00,ALWS 1.0-beta,2013-04-20 22:50:00,
2013-04-20 16:55:00,44.5,32.3,30.15,NW,305,10.0,18.0,62,0.00,,,0.21,32767.00,ALWS 1.0-beta,2013-04-20 22:55:00,
2013-04-20 17:00:00,44.6,32.8,30.15,NW,306,15.0,19.0,63,0.00,,,0.21,32767.00,ALWS 1.0-beta,2013-04-20 23:00:00,
2013-04-20 17:05:00,44.1,31.9,30.16,WNW,286,11.0,13.0,62,0.00,,,0.21,32767.00,ALWS 1.0-beta,2013-04-20 23:05:00,
2013-04-20 17:10:00,44.2,32.0,30.16,NW,304,11.0,13.0,62,0.00,,,0.21,32767.00,ALWS 1.0-beta,2013-04-20 23:10:00,
2013-04-20 17:15:00,44.2,32.0,30.16,WNW,299,8.0,10.0,62,0.00,,,0.21,32767.00,ALWS 1.0-beta,2013-04-20 23:15:00,
2013-04-20 17:20:00,44.6,32.4,30.16,NW,317,15.0,18.0,62,0.00,,,0.21,32767.00,ALWS 1.0-beta,2013-04-20 23:20:00,
2013-04-20 17:25:00,44.1,30.7,30.16,NW,305,17.0,22.0,59,0.00,,,0.21,32767.00,ALWS 1.0-beta,2013-04-20 23:25:00,
2013-04-20 17:30:00,43.6,30.2,30.16,NW,310,15.0,22.0,59,0.00,,,0.21,32767.00,ALWS 1.0-beta,2013-04-20 23:30:00,
2013-04-20 17:35:00,43.7,30.7,30.16,NW,311,13.0,14.0,60,0.00,,,0.21,32767.00,ALWS 1.0-beta,2013-04-20 23:35:00,
2013-04-20 17:40:00,44.6,31.2,30.16,NW,310,19.0,20.0,59,0.00,,,0.21,32767.00,ALWS 1.0-beta,2013-04-20 23:40:00,
2013-04-20 17:45:00,44.6,30.8,30.16,NW,311,14.0,17.0,58,0.00,,,0.21,32767.00,ALWS 1.0-beta,2013-04-20 23:45:00,
2013-04-20 17:50:00,44.8,30.1,30.16,WNW,293,13.0,18.0,56,0.00,,,0.21,32767.00,ALWS 1.0-beta,2013-04-20 23:50:00,
2013-04-20 17:55:00,44.4,30.6,30.16,WNW,300,15.0,18.0,58,0.00,,,0.21,32767.00,ALWS 1.0-beta,2013-04-20 23:55:00,
2013-04-20 18:00:00,44.1,30.7,30.17,NW,318,10.0,11.0,59,0.00,,,0.21,32767.00,ALWS 1.0-beta,2013-04-21 00:00:00,
2013-04-20 18:05:00,43.8,30.0,30.16,NW,316,7.0,10.0,58,0.00,,,0.21,32767.00,ALWS 1.0-beta,2013-04-21 00:05:00,
2013-04-20 18:10:00,43.7,30.7,30.16,NW,312,7.0,10.0,60,0.00,,,0.21,32767.00,ALWS 1.0-beta,2013-04-21 00:10:00,
2013-04-20 18:15:00,43.7,30.7,30.16,NW,314,10.0,12.0,60,0.00,,,0.21,32767.00,ALWS 1.0-beta,2013-04-21 00:15:00,
2013-04-20 18:20:00,43.9,30.9,30.16,NW,317,7.0,10.0,60,0.00,,,0.21,32767.00,ALWS 1.0-beta,2013-04-21 00:20:00,
2013-04-20 18:25:00,44.0,30.6,30.16,NW,307,10.0,13.0,59,0.00,,,0.21,32767.00,ALWS 1.0-beta,2013-04-21 00:25:00,
2013-04-20 18:30:00,44.3,30.5,30.16,WNW,291,14.0,14.0,58,0.00,,,0.21,32767.00,ALWS 1.0-beta,2013-04-21 00:30:00,
2013-04-20 18:35:00,44.1,30.7,30.16,WNW,298,7.0,9.0,59,0.00,,,0.21,32767.00,ALWS 1.0-beta,2013-04-21 00:35:00,
2013-04-20 18:40:00,44.1,31.1,30.16,NW,313,7.0,9.0,60,0.00,,,0.21,32767.00,ALWS 1.0-beta,2013-04-21 00:40:00,
2013-04-20 18:45:00,44.2,30.4,30.16,NW,321,6.0,10.0,58,0.00,,,0.21,32767.00,ALWS 1.0-beta,2013-04-21 00:45:00,
2013-04-20 18:50:00,43.7,29.9,30.17,WNW,298,12.0,12.0,58,0.00,,,0.21,32767.00,ALWS 1.0-beta,2013-04-21 00:50:00,
2013-04-20 18:55:00,43.7,29.9,30.17,WNW,294,10.0,12.0,58,0.00,,,0.21,32767.00,ALWS 1.0-beta,2013-04-21 00:55:00,
2013-04-20 19:00:00,44.1,29.9,30.17,WNW,303,8.0,10.0,57,0.00,,,0.21,32767.00,ALWS 1.0-beta,2013-04-21 01:00:00,
2013-04-20 19:05:00,44.3,29.2,30.17,WNW,296,13.0,13.0,55,0.00,,,0.21,32767.00,ALWS 1.0-beta,2013-04-21 01:05:00,
2013-04-20 19:10:00,44.4,29.7,30.17,WNW,294,7.0,7.0,56,0.00,,,0.21,32767.00,ALWS 1.0-beta,2013-04-21 01:10:00,
2013-04-20 19:15:00,44.2,29.1,30.17,WNW,284,6.0,9.0,55,0.00,,,0.21,32767.00,ALWS 1.0-beta,2013-04-21 01:15:00,
2013-04-20 19:20:00,44.1,29.4,30.17,West,276,10.0,10.0,56,0.00,,,0.21,32767.00,ALWS 1.0-beta,2013-04-21 01:20:00,
2013-04-20 19:25:00,44.1,29.4,30.17,WNW,285,10.0,11.0,56,0.00,,,0.21,32767.00,ALWS 1.0-beta,2013-04-21 01:25:00,
2013-04-20 19:30:00,44.0,28.9,30.17,WNW,296,11.0,11.0,55,0.00,,,0.21,32767.00,ALWS 1.0-beta,2013-04-21 01:30:00,
2013-04-20 19:35:00,43.8,29.1,30.17,West,277,5.0,8.0,56,0.00,,,0.21,32767.00,ALWS 1.0-beta,2013-04-21 01:35:00,
2013-04-20 19:40:00,43.6,29.0,30.17,WNW,296,7.0,9.0,56,0.00,,,0.21,32767.00,ALWS 1.0-beta,2013-04-21 01:40:00,
2013-04-20 19:45:00,43.3,28.7,30.18,WNW,296,3.0,3.0,56,0.00,,,0.21,32767.00,ALWS 1.0-beta,2013-04-21 01:45:00,
2013-04-20 19:50:00,42.9,28.7,30.17,West,279,4.0,4.0,57,0.00,,,0.21,32767.00,ALWS 1.0-beta,2013-04-21 01:50:00,
2013-04-20 19:55:00,42.7,29.0,30.18,West,279,2.0,2.0,58,0.00,,,0.21,32767.00,ALWS 1.0-beta,2013-04-21 01:55:00,
2013-04-20 20:00:00,42.4,28.7,30.18,West,279,0.0,0.0,58,0.00,,,0.21,32767.00,ALWS 1.0-beta,2013-04-21 02:00:00,
2013-04-20 20:05:00,42.2,28.9,30.18,West,279,0.0,0.0,59,0.00,,,0.21,32767.00,ALWS 1.0-beta,2013-04-21 02:05:00,
2013-04-20 20:10:00,42.0,28.7,30.18,West,279,0.0,0.0,59,0.00,,,0.21,32767.00,ALWS 1.0-beta,2013-04-21 02:10:00,
2013-04-20 20:15:00,41.8,28.5,30.18,West,279,0.0,0.0,59,0.00,,,0.21,32767.00,ALWS 1.0-beta,2013-04-21 02:15:00,
2013-04-20 20:20:00,41.6,28.8,30.18,West,279,0.0,0.0,60,0.00,,,0.21,32767.00,ALWS 1.0-beta,2013-04-21 02:20:00,
2013-04-20 20:25:00,40.9,28.5,30.18,West,279,1.0,1.0,61,0.00,,,0.21,32767.00,ALWS 1.0-beta,2013-04-21 02:25:00,
2013-04-20 20:30:00,40.5,28.5,30.18,West,279,0.0,0.0,62,0.00,,,0.21,32767.00,ALWS 1.0-beta,2013-04-21 02:30:00,
2013-04-20 20:35:00,40.2,28.6,30.18,West,279,0.0,0.0,63,0.00,,,0.21,32767.00,ALWS 1.0-beta,2013-04-21 02:35:00,
2013-04-20 20:40:00,39.4,28.2,30.19,West,279,3.0,3.0,64,0.00,,,0.21,32767.00,ALWS 1.0-beta,2013-04-21 02:40:00,
2013-04-20 20:45:00,38.9,28.1,30.18,ENE,71,5.0,5.0,65,0.00,,,0.21,32767.00,ALWS 1.0-beta,2013-04-21 02:45:00,
2013-04-20 20:50:00,38.3,28.0,30.19,ENE,57,3.0,3.0,66,0.00,,,0.21,32767.00,ALWS 1.0-beta,2013-04-21 02:50:00,
2013-04-20 20:55:00,38.6,28.6,30.19,East,86,2.0,2.0,67,0.00,,,0.21,32767.00,ALWS 1.0-beta,2013-04-21 02:55:00,
2013-04-20 21:00:00,38.9,28.5,30.19,East,83,4.0,5.0,66,0.00,,,0.21,32767.00,ALWS 1.0-beta,2013-04-21 03:00:00,
2013-04-20 21:05:00,38.8,28.1,30.20,East,83,0.0,4.0,65,0.00,,,0.21,32767.00,ALWS 1.0-beta,2013-04-21 03:05:00,
2013-04-20 21:10:00,38.3,28.0,30.20,East,83,2.0,4.0,66,0.00,,,0.21,32767.00,ALWS 1.0-beta,2013-04-21 03:10:00,
2013-04-20 21:15:00,38.0,28.0,30.20,East,83,0.0,3.0,67,0.00,,,0.21,32767.00,ALWS 1.0-beta,2013-04-21 03:15:00,
2013-04-20 21:20:00,37.7,27.8,30.20,East,83,0.0,0.0,67,0.00,,,0.21,32767.00,ALWS 1.0-beta,2013-04-21 03:20:00,
2013-04-20 21:25:00,37.6,28.0,30.20,East,83,2.0,3.0,68,0.00,,,0.21,32767.00,ALWS 1.0-beta,2013-04-21 03:25:00,
2013-04-20 21:30:00,37.5,27.9,30.20,East,83,4.0,4.0,68,0.00,,,0.21,32767.00,ALWS 1.0-beta,2013-04-21 03:30:00,
2013-04-20 21:35:00,37.7,28.1,30.20,East,83,3.0,4.0,68,0.00,,,0.21,32767.00,ALWS 1.0-beta,2013-04-21 03:35:00,
2013-04-20 21:40:00,37.4,27.8,30.20,East,83,1.0,4.0,68,0.00,,,0.21,32767.00,ALWS 1.0-beta,2013-04-21 03:40:00,
2013-04-20 21:45:00,37.4,27.8,30.20,East,83,0.0,3.0,68,0.00,,,0.21,32767.00,ALWS 1.0-beta,2013-04-21 03:45:00,
2013-04-20 21:50:00,37.2,27.6,30.20,East,83,0.0,4.0,68,0.00,,,0.21,32767.00,ALWS 1.0-beta,2013-04-21 03:50:00,
2013-04-20 21:55:00,37.4,27.8,30.21,East,83,0.0,3.0,68,0.00,,,0.21,32767.00,ALWS 1.0-beta,2013-04-21 03:55:00,
2013-04-20 22:00:00,37.1,27.5,30.21,East,83,0.0,0.0,68,0.00,,,0.21,32767.00,ALWS 1.0-beta,2013-04-21 04:00:00,
2013-04-20 22:01:00,36.9,27.3,30.21,East,83,0.0,0.0,68,0.00,,,0.21,32767.00,ALWS 1.0-beta,2013-04-21 04:01:00,
2013-04-20 22:06:00,36.5,27.3,30.20,East,83,3.0,4.0,69,0.00,,,0.21,32767.00,ALWS 1.0-beta,2013-04-21 04:06:00,
2013-04-20 22:11:00,36.5,27.7,30.21,East,83,3.0,3.0,70,0.00,,,0.21,32767.00,ALWS 1.0-beta,2013-04-21 04:11:00,
2013-04-20 22:16:00,36.6,27.4,30.21,East,83,0.0,0.0,69,0.00,,,0.21,32767.00,ALWS 1.0-beta,2013-04-21 04:16:00,
2013-04-20 22:21:00,36.1,27.3,30.21,East,83,0.0,0.0,70,0.00,,,0.21,32767.00,ALWS 1.0-beta,2013-04-21 04:21:00,
2013-04-20 22:26:00,35.6,27.1,30.21,East,83,1.0,2.0,71,0.00,,,0.21,32767.00,ALWS 1.0-beta,2013-04-21 04:26:00,
2013-04-20 22:31:00,35.2,26.8,30.21,East,83,0.0,0.0,71,0.00,,,0.21,32767.00,ALWS 1.0-beta,2013-04-21 04:31:00,
2013-04-20 22:36:00,34.5,26.4,30.22,NE,53,0.0,0.0,72,0.00,,,0.21,32767.00,ALWS 1.0-beta,2013-04-21 04:36:00,
2013-04-20 22:41:00,34.3,26.6,30.22,NE,52,0.0,0.0,73,0.00,,,0.21,32767.00,ALWS 1.0-beta,2013-04-21 04:41:00,
2013-04-20 22:46:00,34.4,27.0,30.21,ENE,70,0.0,3.0,74,0.00,,,0.21,32767.00,ALWS 1.0-beta,2013-04-21 04:46:00,
2013-04-20 22:51:00,34.3,26.9,30.21,ENE,71,0.0,3.0,74,0.00,,,0.21,32767.00,ALWS 1.0-beta,2013-04-21 04:51:00,
2013-04-20 22:56:00,33.9,26.5,30.22,NW,316,0.0,3.0,74,0.00,,,0.21,32767.00,ALWS 1.0-beta,2013-04-21 04:56:00,
2013-04-20 23:01:00,34.0,26.9,30.22,NW,316,0.0,0.0,75,0.00,,,0.21,32767.00,ALWS 1.0-beta,2013-04-21 05:01:00,
2013-04-20 23:06:00,33.9,26.8,30.22,NW,315,0.0,0.0,75,0.00,,,0.21,32767.00,ALWS 1.0-beta,2013-04-21 05:06:00,
2013-04-20 23:11:00,34.2,27.1,30.22,NW,316,2.0,2.0,75,0.00,,,0.21,32767.00,ALWS 1.0-beta,2013-04-21 05:11:00,
2013-04-20 23:16:00,34.0,26.9,30.22,NW,315,2.0,2.0,75,0.00,,,0.21,32767.00,ALWS 1.0-beta,2013-04-21 05:16:00,
2013-04-20 23:21:00,33.8,26.7,30.22,NE,48,4.0,4.0,75,0.00,,,0.21,32767.00,ALWS 1.0-beta,2013-04-21 05:21:00,
2013-04-20 23:26:00,33.9,26.8,30.22,NE,35,2.0,2.0,75,0.00,,,0.21,32767.00,ALWS 1.0-beta,2013-04-21 05:26:00,
2013-04-20 23:31:00,33.3,26.2,30.22,NNE,26,0.0,0.0,75,0.00,,,0.21,32767.00,ALWS 1.0-beta,2013-04-21 05:31:00,
2013-04-20 23:36:00,33.7,27.0,30.21,East,98,3.0,5.0,76,0.00,,,0.21,32767.00,ALWS 1.0-beta,2013-04-21 05:36:00,
2013-04-20 23:41:00,34.1,27.3,30.21,East,80,2.0,6.0,76,0.00,,,0.21,32767.00,ALWS 1.0-beta,2013-04-21 05:41:00,
2013-04-20 23:46:00,34.4,27.3,30.21,East,94,3.0,5.0,75,0.00,,,0.21,32767.00,ALWS 1.0-beta,2013-04-21 05:46:00,
2013-04-20 23:51:00,34.9,27.8,30.21,East,91,0.0,2.0,75,0.00,,,0.21,32767.00,ALWS 1.0-beta,2013-04-21 05:51:00,
2013-04-20 23:56:00,33.9,25.8,30.22,NW,323,0.0,4.0,72,0.00,,,0.21,32767.00,ALWS 1.0-beta,2013-04-21 05:56:00,